When you browse on this site, cookies collect data to enhance your experience and personalize the content and advertising you see.
Visit our Privacy Policy to learn more. By continuing to use the site, you agree to this use of cookies and data.
  • In Austria
  • List of Countries
  • For 7 days
  • Water Temperature
  • Satellite Maps
  • Weather Map
  • News
  • Weather Widgets
  • user-avatar
    Login

    Hourly Weather Dangriga

    Today, 25 June, Tuesday

    Time Temperature Precipitation Wind Pressure Humidity
    00:00 +26°C° 0.1 mm 5 mps 760 mmHg 99%
    01:00 +26°C° 0 mm 5 mps 759 mmHg 98%
    02:00 +26°C° 0 mm 5 mps 759 mmHg 98%
    03:00 +26°C° 0 mm 5 mps 758 mmHg 98%
    04:00 +26°C° 0 mm 5 mps 759 mmHg 98%
    05:00 +26°C° 0 mm 5 mps 759 mmHg 98%
    06:00 +26°C° 0 mm 5 mps 759 mmHg 98%
    07:00 +28°C° 0 mm 5 mps 760 mmHg 88%
    08:00 +30°C° 0 mm 5 mps 760 mmHg 78%
    09:00 +32°C° 0 mm 6 mps 760 mmHg 68%
    10:00 +33°C° 0 mm 6 mps 760 mmHg 65%
    11:00 +34°C° 0 mm 6 mps 760 mmHg 61%
    12:00 +35°C° 0 mm 6 mps 760 mmHg 57%
    13:00 +34°C° 0 mm 6 mps 760 mmHg 58%
    14:00 +34°C° 0 mm 6 mps 759 mmHg 59%
    15:00 +34°C° 0 mm 6 mps 758 mmHg 60%
    16:00 +32°C° 0 mm 6 mps 759 mmHg 69%
    17:00 +30°C° 0 mm 6 mps 759 mmHg 78%
    18:00 +28°C° 0 mm 5 mps 759 mmHg 87%
    19:00 +28°C° 0 mm 5 mps 759 mmHg 91%
    20:00 +27°C° 0 mm 6 mps 760 mmHg 94%
    21:00 +27°C° 0 mm 6 mps 761 mmHg 98%
    22:00 +27°C° 0.1 mm 5 mps 761 mmHg 98%
    23:00 +27°C° 0.1 mm 5 mps 761 mmHg 98%

    Tomorrow, 26 June, Wednesday

    Time Temperature Precipitation Wind Pressure Humidity
    00:00 +26°C° 0.1 mm 4 mps 760 mmHg 98%
    01:00 +26°C° 0.1 mm 4 mps 760 mmHg 98%
    02:00 +26°C° 0.1 mm 4 mps 760 mmHg 98%
    03:00 +26°C° 0.1 mm 4 mps 759 mmHg 98%
    04:00 +26°C° 0.3 mm 5 mps 760 mmHg 98%
    05:00 +26°C° 0.3 mm 5 mps 760 mmHg 98%
    06:00 +26°C° 0.3 mm 5 mps 760 mmHg 98%
    07:00 +27°C° 0.7 mm 5 mps 760 mmHg 96%
    08:00 +28°C° 0.7 mm 5 mps 761 mmHg 95%
    09:00 +29°C° 0.7 mm 5 mps 761 mmHg 93%
    10:00 +30°C° 0.7 mm 5 mps 761 mmHg 90%
    11:00 +30°C° 0.7 mm 6 mps 761 mmHg 87%
    12:00 +32°C° 0.7 mm 6 mps 760 mmHg 83%
    13:00 +30°C° 1.1 mm 6 mps 760 mmHg 86%
    14:00 +30°C° 1.1 mm 6 mps 759 mmHg 89%
    15:00 +29°C° 1.1 mm 6 mps 759 mmHg 92%
    16:00 +29°C° 0.6 mm 6 mps 759 mmHg 94%
    17:00 +28°C° 0.6 mm 6 mps 759 mmHg 95%
    18:00 +27°C° 0.6 mm 6 mps 759 mmHg 97%
    19:00 +27°C° 0.4 mm 6 mps 760 mmHg 97%
    20:00 +27°C° 0.4 mm 6 mps 760 mmHg 98%
    21:00 +26°C° 0.4 mm 6 mps 761 mmHg 99%
    22:00 +26°C° 0.6 mm 6 mps 761 mmHg 99%
    23:00 +26°C° 0.6 mm 6 mps 760 mmHg 99%

    Day after tomorrow, 27 June, Thursday

    Time Temperature Precipitation Wind Pressure Humidity
    00:00 +26°C° 0.6 mm 5 mps 760 mmHg 99%
    01:00 +26°C° 0.3 mm 5 mps 760 mmHg 99%
    02:00 +26°C° 0.3 mm 5 mps 759 mmHg 99%
    03:00 +26°C° 0.3 mm 5 mps 759 mmHg 98%
    04:00 +26°C° 0.1 mm 4 mps 759 mmHg 98%
    05:00 +26°C° 0.1 mm 4 mps 759 mmHg 98%
    06:00 +26°C° 0.1 mm 4 mps 760 mmHg 98%
    07:00 +27°C° 0.8 mm 4 mps 760 mmHg 96%
    08:00 +28°C° 0.8 mm 4 mps 760 mmHg 94%
    09:00 +29°C° 0.8 mm 4 mps 761 mmHg 92%
    10:00 +29°C° 2.4 mm 4 mps 761 mmHg 93%
    11:00 +29°C° 2.4 mm 5 mps 761 mmHg 93%
    12:00 +29°C° 2.4 mm 5 mps 760 mmHg 93%
    13:00 +30°C° 1.1 mm 5 mps 760 mmHg 86%
    14:00 +30°C° 1.1 mm 5 mps 760 mmHg 79%
    15:00 +32°C° 1.1 mm 5 mps 759 mmHg 71%
    16:00 +30°C° 0.1 mm 5 mps 759 mmHg 78%
    17:00 +29°C° 0.1 mm 5 mps 759 mmHg 85%
    18:00 +28°C° 0.1 mm 5 mps 759 mmHg 91%
    19:00 +28°C° 0 mm 5 mps 760 mmHg 94%
    20:00 +27°C° 0 mm 5 mps 760 mmHg 96%
    21:00 +26°C° 0 mm 5 mps 761 mmHg 98%
    22:00 +26°C° 0.2 mm 5 mps 761 mmHg 98%
    23:00 +26°C° 0.2 mm 5 mps 761 mmHg 99%

    28 June, Friday

    Time Temperature Precipitation Wind Pressure Humidity
    00:00 +26°C° 0.2 mm 5 mps 760 mmHg 99%
    01:00 +26°C° 0.1 mm 4 mps 760 mmHg 99%
    02:00 +26°C° 0.1 mm 4 mps 760 mmHg 98%
    03:00 +26°C° 0.1 mm 4 mps 759 mmHg 98%
    04:00 +26°C° 0.2 mm 3 mps 760 mmHg 98%
    05:00 +26°C° 0.2 mm 3 mps 760 mmHg 98%
    06:00 +26°C° 0.2 mm 3 mps 760 mmHg 98%
    07:00 +27°C° 0.1 mm 3 mps 760 mmHg 94%
    08:00 +29°C° 0.1 mm 4 mps 761 mmHg 89%
    09:00 +30°C° 0.1 mm 4 mps 761 mmHg 85%
    10:00 +32°C° 0 mm 4 mps 761 mmHg 74%
    11:00 +34°C° 0 mm 4 mps 761 mmHg 64%
    12:00 +35°C° 0 mm 5 mps 760 mmHg 53%
    13:00 +34°C° 0 mm 4 mps 760 mmHg 56%
    14:00 +34°C° 0 mm 4 mps 759 mmHg 58%
    15:00 +33°C° 0 mm 4 mps 759 mmHg 60%
    16:00 +32°C° 0.4 mm 4 mps 759 mmHg 71%
    17:00 +29°C° 0.4 mm 5 mps 759 mmHg 81%
    18:00 +28°C° 0.4 mm 5 mps 759 mmHg 92%
    19:00 +27°C° 0.6 mm 5 mps 760 mmHg 94%
    20:00 +26°C° 0.6 mm 5 mps 760 mmHg 96%
    21:00 +26°C° 0.6 mm 4 mps 760 mmHg 98%
    22:00 +25°C° 0.8 mm 4 mps 760 mmHg 98%
    23:00 +25°C° 0.8 mm 4 mps 760 mmHg 98%

    29 June, Saturday

    Time Temperature Precipitation Wind Pressure Humidity
    00:00 +25°C° 0.8 mm 3 mps 760 mmHg 98%
    01:00 +25°C° 1.1 mm 3 mps 760 mmHg 98%
    02:00 +25°C° 1.1 mm 3 mps 760 mmHg 98%
    03:00 +25°C° 1.1 mm 3 mps 760 mmHg 98%
    04:00 +25°C° 1.2 mm 3 mps 760 mmHg 98%
    05:00 +25°C° 1.2 mm 3 mps 760 mmHg 97%
    06:00 +25°C° 1.2 mm 2 mps 760 mmHg 97%
    07:00 +27°C° 0.5 mm 2 mps 760 mmHg 88%
    08:00 +29°C° 0.5 mm 2 mps 761 mmHg 79%
    09:00 +30°C° 0.5 mm 2 mps 761 mmHg 70%
    10:00 +31°C° 0.7 mm 3 mps 761 mmHg 71%
    11:00 +31°C° 0.7 mm 3 mps 761 mmHg 71%
    12:00 +31°C° 0.7 mm 3 mps 761 mmHg 71%
    13:00 +33°C° 0.2 mm 4 mps 760 mmHg 67%
    14:00 +33°C° 0.2 mm 4 mps 760 mmHg 63%
    15:00 +33°C° 0.2 mm 5 mps 759 mmHg 59%
    16:00 +32°C° 0.3 mm 5 mps 759 mmHg 69%
    17:00 +29°C° 0.3 mm 5 mps 759 mmHg 79%
    18:00 +28°C° 0.3 mm 5 mps 759 mmHg 88%
    19:00 +27°C° 0.4 mm 4 mps 760 mmHg 91%
    20:00 +26°C° 0.4 mm 4 mps 760 mmHg 95%
    21:00 +25°C° 0.4 mm 4 mps 761 mmHg 98%
    22:00 +25°C° 0.7 mm 4 mps 761 mmHg 98%
    23:00 +25°C° 0.7 mm 4 mps 761 mmHg 98%

    30 June, Sunday

    Time Temperature Precipitation Wind Pressure Humidity
    00:00 +25°C° 0.7 mm 4 mps 760 mmHg 98%
    01:00 +25°C° 1.3 mm 4 mps 760 mmHg 98%
    02:00 +25°C° 1.3 mm 4 mps 760 mmHg 98%
    03:00 +25°C° 1.3 mm 3 mps 759 mmHg 98%
    04:00 +25°C° 2.1 mm 3 mps 759 mmHg 98%
    05:00 +25°C° 2.1 mm 3 mps 759 mmHg 98%
    06:00 +26°C° 2.1 mm 3 mps 760 mmHg 98%
    07:00 +26°C° 2.3 mm 4 mps 760 mmHg 96%
    08:00 +27°C° 2.3 mm 4 mps 760 mmHg 95%
    09:00 +28°C° 2.3 mm 5 mps 760 mmHg 93%
    10:00 +29°C° 2.3 mm 5 mps 760 mmHg 93%
    11:00 +29°C° 2.3 mm 6 mps 760 mmHg 94%
    12:00 +29°C° 2.3 mm 7 mps 760 mmHg 94%
    13:00 +29°C° 1.8 mm 7 mps 759 mmHg 95%
    14:00 +29°C° 1.8 mm 6 mps 759 mmHg 95%
    15:00 +28°C° 1.8 mm 6 mps 759 mmHg 96%
    16:00 +28°C° 0.5 mm 6 mps 759 mmHg 97%
    17:00 +28°C° 0.5 mm 5 mps 759 mmHg 97%
    18:00 +27°C° 0.5 mm 4 mps 759 mmHg 98%
    19:00 +27°C° 1.4 mm 5 mps 759 mmHg 98%
    20:00 +27°C° 1.4 mm 5 mps 759 mmHg 98%
    21:00 +26°C° 1.4 mm 6 mps 760 mmHg 99%
    22:00 +26°C° 3.7 mm 6 mps 760 mmHg 99%
    23:00 +26°C° 3.7 mm 7 mps 760 mmHg 99%
    Show more